Location: *
(52.2090°N, 4.1550°W)
Time: 05:49:15
(UTC+00:00)

Thor Agena Rocket - Pass Details

Date: 19 July 2019
Orbit: 759 x 808 km, 99.1° (Epoch: 21 August)

Event Time Altitude Azimuth Distance (km) Brightness Sun altitude
Rises 22:34:41 0° 12° (NNE) 3,239 7.6 -13.3°
Reaches altitude 10° 22:37:03 10° 8° (N) 2,306 6.9 -13.5°
Maximum altitude 22:41:56 51° 294° (WNW) 955 4.3 -13.8°
Drops below altitude 10° 22:46:48 10° 219° (SW) 2,291 5.7 -14.1°
Enters shadow 22:48:52 - 215° (SW) 3,106 6.3 -14.2°
